User: anonymous   Login
Location: Unspecified
(0.0000°N, 0.0000°E)
Time: 08:19:03
(UTC+00:00)
Language:

PCSat - Orbit

View from above orbital plane
View from above orbital plane
View from above satellite
View from above satellite

Ground track
Ground track

The orbit data is extracted from the following two-line orbital elements,

1 26931U 01043C   18347.82833837 -.00000023  00000-0  22964-4 0  9997
2 26931  67.0504 125.8702 0005942 259.6294 100.4138 14.30526417898248
Epoch (UTC): 13 December 2018 19:52:48
Eccentricity: 0.0005942
inclination: 67.0504°
perigee height: 786 km
apogee height: 794 km
right ascension of ascending node: 125.8702°
argument of perigee: 259.6294°
revolutions per day: 14.30526417
mean anomaly at epoch: 100.4138°
orbit number at epoch: 89824

The dashed part of the orbit path shows where the satellite is in the earth's shadow,  

DLR